Location: Gajan
(43.0218°N, 1.1244°E)
Time: 02:55:11
(UTC+00:00)

BREEZE M DEB (TANK) - Pass Details

Date: 22 April 2021
Orbit: 273 x 14497 km, 49.6° (Epoch: 14 May)

Event Time Altitude Azimuth Distance (km) Brightness Sun altitude
Rises 20:14:34 0° 250° (WSW) 7,721 8.7 -15.3°
Reaches altitude 10° 20:21:56 10° 254° (WSW) 4,771 7.6 -16.4°
Maximum altitude 20:31:24 58° 333° (NNW) 868 3.5 -17.8°
Enters shadow 20:34:14 12° 54° (NE) 1,497 4.4 -18.2°
